GW6280 Weather Reports


time (UTC)temp
C
wind
direction
speed
KPH
gust
KPH
rain 1hr
cm
rain 24hr
cm
rain mn
cm
humidity
%
barometer
mb
20260507080031 11 0.0 0.0 0.00 0.00 0.00 94 1023.1
20260507075016 11 0.0 0.0 0.00 0.00 0.00 94 1023.1
20260507074019 11 0.0 0.0 0.00 0.00 0.00 94 1023.1
20260507073023 11 0.0 0.0 0.00 0.00 0.00 94 1023.0
20260507072027 11 0.0 0.0 0.00 0.00 0.00 94 1023.0
20260507071050 11 0.0 0.0 0.00 0.00 0.00 94 1023.0
20260507070035 11 0.0 0.0 0.00 0.00 0.00 93 1022.9
20260507065019 11 0.0 0.0 0.00 0.00 0.00 93 1022.9
20260507064022 11 0.0 0.0 0.00 0.00 0.00 93 1023.0
20260507063026 11 0.0 0.0 0.00 0.00 0.00 92 1023.0
20260507062030 11 0.0 0.0 0.00 0.00 0.00 92 1023.1
20260507061015 11 0.0 0.0 0.00 0.00 0.00 91 1023.1
20260507060018 11 0.0 0.0 0.00 0.00 0.00 91 1023.1
20260507055022 12 0.0 0.0 0.00 0.00 0.00 91 1023.1
20260507054025 12 0.0 0.0 0.00 0.00 0.00 90 1023.1
20260507053023 12 0.0 0.0 0.00 0.00 0.00 90 1023.2
20260507052021 12 0.0 0.0 0.00 0.00 0.00 90 1023.1
20260507051018 12 0.0 0.0 0.00 0.00 0.00 90 1023.1
20260507050036 12 0.0 0.0 0.00 0.00 0.00 89 1023.0
20260507045019 12 0.0 0.0 0.00 0.00 0.00 88 1023.1
20260507044042 12 0.0 0.0 0.00 0.00 0.00 88 1023.0
20260507043026 12 0.0 0.0 0.00 0.00 0.00 88 1023.0
20260507042029 12 0.0 0.0 0.00 0.00 0.00 88 1023.0
20260507041015 13 0.0 3.2 0.00 0.00 0.00 88 1022.9
20260507040018 13 0.0 0.0 0.00 0.00 0.00 88 1022.9
20260507035022 13 0.0 0.0 0.00 0.00 0.00 87 1022.8
20260507034025 13 0.0 0.0 0.00 0.00 0.00 87 1022.8
20260507033030 13 0.0 0.0 0.00 0.00 0.00 87 1022.7
20260507032032 13 0.0 0.0 0.00 0.00 0.00 86 1022.7
20260507031038 13 0.0 0.0 0.00 0.00 0.00 86 1022.7
20260507030021 13 0.0 0.0 0.00 0.00 0.00 85 1022.6
20260507025045 13 0.0 0.0 0.00 0.00 0.00 85 1022.6
20260507024028 13 0.0 0.0 0.00 0.00 0.00 85 1022.6
20260507023032 14 0.0 0.0 0.00 0.00 0.00 84 1022.5
20260507022017 14 0.0 0.0 0.00 0.00 0.00 83 1022.5
20260507021021 14 0.0 0.0 0.00 0.00 0.00 83 1022.5
20260507020024 14 0.0 0.0 0.00 0.00 0.00 83 1022.4
20260507015027 14 45 0.0 3.2 0.00 0.00 0.00 82 1022.3
20260507014025 14 131 0.0 3.2 0.00 0.00 0.00 80 1022.3
20260507013016 15 180 0.0 3.2 0.00 0.00 0.00 80 1022.4
20260507012019 15 0.0 0.0 0.00 0.00 0.00 80 1022.5
20260507011017 15 135 1.6 3.2 0.00 0.00 0.00 80 1022.5
20260507010027 14 23 0.0 3.2 0.00 0.00 0.00 81 1022.6
20260507005030 15 110 4.8 8.0 0.00 0.00 0.00 80 1022.6
20260507004035 15 108 1.6 4.8 0.00 0.00 0.00 79 1022.5
20260507003019 15 104 0.0 4.8 0.00 0.00 0.00 80 1022.5
20260507002022 15 114 1.6 6.4 0.00 0.00 0.00 79 1022.5
20260507001026 14 103 3.2 8.0 0.00 0.00 0.00 81 1022.5
20260507000030 14 99 3.2 4.8 0.00 0.00 0.00 81 1022.4
20260506235032 14 98 4.8 8.0 0.00 0.00 0.00 81 1022.4
20260506234018 14 108 4.8 8.0 0.00 0.00 0.00 81 1022.5
20260506233043 14 90 4.8 6.4 0.00 0.00 0.00 81 1022.5
20260506232025 14 103 3.2 8.0 0.00 0.00 0.00 80 1022.6
20260506231028 14 104 4.8 6.4 0.00 0.00 0.00 80 1022.6
20260506230031 14 92 4.8 8.0 0.00 0.00 0.00 80 1022.6
20260506225017 14 107 4.8 8.0 0.00 0.00 0.00 79 1022.6
20260506224041 14 118 3.2 6.4 0.00 0.00 0.00 78 1022.6
20260506223024 14 106 4.8 12.9 0.00 0.00 0.00 79 1022.6
20260506222027 14 99 8.0 12.9 0.00 0.00 0.00 78 1022.7
20260506221051 14 86 6.4 11.3 0.00 0.00 0.00 78 1022.7
20260506220016 15 114 4.8 6.4 0.00 0.00 0.00 76 1022.8
20260506215040 15 133 4.8 9.7 0.00 0.00 0.00 75 1022.7
20260506214023 14 71 4.8 8.0 0.00 0.00 0.00 77 1022.7
20260506213020 14 97 6.4 8.0 0.00 0.00 0.00 78 1022.8
20260506212019 14 92 6.4 8.0 0.00 0.00 0.00 78 1022.9
20260506211015 14 122 4.8 9.7 0.00 0.00 0.00 76 1022.9
20260506210019 14 118 4.8 8.0 0.00 0.00 0.00 77 1022.8
20260506205037 14 96 8.0 11.3 0.00 0.00 0.00 77 1022.8
20260506204020 14 105 6.4 9.7 0.00 0.00 0.00 76 1022.7
20260506203024 14 104 8.0 11.3 0.00 0.00 0.00 76 1022.7
20260506202027 14 70 4.8 9.7 0.00 0.00 0.00 77 1022.7
20260506201031 13 108 6.4 8.0 0.00 0.00 0.00 78 1022.6
20260506200016 14 106 8.0 11.3 0.00 0.00 0.00 78 1022.7
20260506195019 14 93 4.8 9.7 0.00 0.00 0.00 78 1022.6
20260506194043 13 122 6.4 11.3 0.00 0.00 0.00 79 1022.6
20260506193027 13 100 6.4 9.7 0.00 0.00 0.00 79 1022.6
20260506192030 13 74 6.4 8.0 0.00 0.00 0.00 79 1022.5
20260506191016 13 114 6.4 9.7 0.00 0.00 0.00 81 1022.5
20260506190019 13 120 8.0 16.1 0.00 0.00 0.00 81 1022.4
20260506185023 13 82 6.4 11.3 0.00 0.00 0.00 83 1022.4
20260506184027 13 114 4.8 9.7 0.00 0.00 0.00 82 1022.4
20260506183029 13 137 4.8 9.7 0.00 0.00 0.00 83 1022.4
20260506182015 13 71 6.4 11.3 0.00 0.00 0.00 84 1022.3
20260506181018 13 104 6.4 9.7 0.00 0.00 0.00 84 1022.3
20260506180042 13 106 6.4 8.0 0.00 0.00 0.00 84 1022.3
20260506175025 12 108 8.0 11.3 0.00 0.00 0.00 85 1022.1
20260506174022 12 129 4.8 8.0 0.00 0.00 0.00 86 1022.1
20260506173020 12 107 8.0 12.9 0.00 0.00 0.00 86 1021.9
20260506172019 13 109 6.4 8.0 0.00 0.00 0.00 86 1022.0
20260506171036 13 146 4.8 8.0 0.00 0.00 0.00 85 1022.2
20260506170025 13 132 4.8 8.0 0.00 0.00 0.00 86 1022.1
20260506165028 13 113 4.8 9.7 0.00 0.00 0.00 86 1022.1
20260506164019 13 106 4.8 8.0 0.00 0.00 0.00 86 1022.1
20260506163042 13 97 6.4 8.0 0.00 0.00 0.00 86 1022.1
20260506162026 13 5 3.2 8.0 0.00 0.00 0.00 86 1022.0
20260506161029 12 124 4.8 12.9 0.00 0.00 0.00 87 1021.7
20260506160113 12 98 6.4 12.9 0.00 0.00 0.00 88 1021.4
20260506155018 12 83 6.4 11.3 0.00 0.00 0.00 89 1021.4
20260506154022 12 67 3.2 8.0 0.00 0.00 0.00 89 1021.4
20260506153025 12 115 6.4 11.3 0.00 0.00 0.00 89 1021.5
20260506152042 12 105 6.4 9.7 0.00 0.00 0.00 89 1021.6
20260506151019 12 115 4.8 9.7 0.00 0.00 0.00 90 1021.7
20260506150017 12 101 6.4 8.0 0.00 0.00 0.00 91 1021.7
20260506145021 12 119 6.4 9.7 0.00 0.00 0.00 92 1021.3
20260506144024 11 106 6.4 12.9 0.00 0.00 0.00 92 1021.3
20260506143048 11 102 8.0 11.3 0.00 0.00 0.00 92 1021.4
20260506142031 11 113 4.8 9.7 0.00 0.00 0.00 92 1021.4
20260506141016 11 137 3.2 8.0 0.00 0.00 0.00 92 1021.4
20260506140040 11 161 1.6 4.8 0.00 0.00 0.00 92 1021.3
20260506135023 11 104 1.6 11.3 0.00 0.00 0.00 92 1021.3
20260506134026 11 92 1.6 4.8 0.00 0.00 0.00 92 1021.3
20260506133030 11 131 3.2 3.2 0.00 0.00 0.00 92 1021.3
20260506132015 11 126 4.8 8.0 0.00 0.00 0.00 93 1021.1
20260506131019 11 75 3.2 9.7 0.00 0.00 0.00 94 1021.1
20260506130043 11 153 3.2 8.0 0.00 0.00 0.00 94 1020.9
20260506125025 11 111 1.6 6.4 0.00 0.00 0.00 97 1020.6
20260506124110 11 85 1.6 6.4 0.00 0.00 0.00 98 1020.5
20260506123033 10 107 1.6 4.8 0.00 0.00 0.00 99 1020.8
20260506122018 10 0.0 0.0 0.00 0.00 0.00 99 1020.8
20260506121021 10 270 0.0 3.2 0.00 0.00 0.00 99 1020.6
20260506120025 10 0.0 0.0 0.00 0.00 0.00 99 1020.6
20260506115028 10 0.0 0.0 0.00 0.00 0.00 99 1020.5
20260506114026 10 140 1.6 4.8 0.00 0.00 0.00 99 1020.5
20260506113017 9 0.0 0.0 0.00 0.00 0.00 99 1020.4
20260506112021 9 23 0.0 3.2 0.00 0.00 0.00 99 1020.1
20260506111018 8 0.0 0.0 0.00 0.00 0.00 99 1020.1
20260506110016 8 45 0.0 3.2 0.00 0.00 0.00 99 1020.1
20260506105031 8 0.0 0.0 0.00 0.00 0.00 99 1020.0
20260506104016 8 0.0 0.0 0.00 0.00 0.00 99 1020.0
20260506103020 8 0.0 0.0 0.00 0.00 0.00 99 1020.1
20260506102023 7 0.0 0.0 0.00 0.00 0.00 98 1020.1
20260506101047 7 0.0 0.0 0.00 0.00 0.00 98 1020.0
20260506100030 7 0.0 0.0 0.00 0.00 0.00 98 1019.9
20260506095016 7 0.0 0.0 0.00 0.00 0.00 98 1019.8
20260506094020 7 0.0 0.0 0.00 0.00 0.00 98 1019.8
20260506093023 7 0.0 0.0 0.00 0.00 0.00 97 1019.7
20260506092026 7 0.0 0.0 0.00 0.00 0.00 97 1019.7
20260506091029 8 0.0 0.0 0.00 0.00 0.00 97 1019.6
20260506090015 8 0.0 0.0 0.00 0.00 0.00 97 1019.5
20260506085018 8 0.0 0.0 0.00 0.00 0.00 97 1019.4
20260506084042 8 0.0 0.0 0.00 0.00 0.00 97 1019.4
20260506083025 8 0.0 0.0 0.00 0.00 0.00 97 1019.3
20260506082029 8 0.0 0.0 0.00 0.00 0.00 97 1019.1
20260506081032 8 0.0 0.0 0.00 0.00 0.00 97 1019.0